Location: Jabiru
(12.6667°S, 132.8333°E)
Time: 15:13:06
(UTC+09:30)

Envisat - Visible Passes

Search period start: 04 August 2020 00:00
Search period end: 14 August 2020 00:00
Orbit: 764 x 766 km, 98.1° (Epoch: 03 August)

Date Brightness Start Highest point End Pass type
(mag) Time Alt. Az. Time Alt. Az. Time Alt. Az.
04 Aug 5.5 05:29:03 10° ENE 05:32:47 21° ESE 05:36:31 10° SSE visible
04 Aug 5.7 19:32:07 10° SSW 19:35:40 19° WSW 19:39:12 10° WNW visible
05 Aug 3.0 06:29:43 10° N 06:34:45 70° WNW 06:39:50 10° SSW visible
05 Aug 3.9 18:54:07 10° S 18:59:05 52° WSW 19:03:59 10° NNW visible
06 Aug 4.3 05:53:19 10° NE 05:58:05 42° ESE 06:02:52 10° S visible
07 Aug 5.8 05:18:36 10° ENE 05:21:31 15° ESE 05:24:25 10° SE visible
07 Aug 5.2 19:20:14 10° SSW 19:24:24 26° WSW 19:28:32 10° NW visible
08 Aug 3.1 06:18:21 10° NNE 06:23:26 87° ESE 06:28:33 10° S visible
09 Aug 4.9 05:42:21 10° NE 05:46:47 31° ESE 05:51:14 10° SSE visible
09 Aug 6.0 19:47:33 10° SW 19:49:39 13° WSW 19:51:45 10° W visible
10 Aug 6.0 05:08:51 10° E 05:10:15 11° ESE 05:11:39 10° ESE visible
10 Aug 4.8 19:08:31 10° SSW 19:13:07 34° WSW 19:17:40 10° NW visible
11 Aug 3.5 06:07:06 10° NNE 06:12:07 64° ESE 06:17:10 10° S visible
12 Aug 5.3 05:31:33 10° NE 05:35:30 23° ESE 05:39:28 10° SSE visible
12 Aug 5.8 19:35:08 10° SW 19:38:23 17° WSW 19:41:38 10° WNW visible
13 Aug 4.2 18:56:56 10° S 19:01:48 47° WSW 19:06:39 10° NNW visible
